Regional Weather Roundup
Issued by NWS

Home | Current Version | Previous Version | Graphics & Text | Print | Product List | Glossary On
Versions: 1 2 3 4 5 6 7 8 9 10 11 12 13 14 15 16 17 18 19 20 21 22 23 24 25 26 27 28 29 30 31 32 33 34 35 36 37 38 39 40 41 42 43 44 45 46 47 48 49 50
000
ASUS43 KDTX 302010
RWRMI
MICHIGAN HOURLY REGIONAL WEATHER ROUNDUP
NATIONAL WEATHER SERVICE DETROIT/PONTIAC MI
400 PM EDT SUN AUG 30 2015

NOTE: "FAIR" INDICATES FEW OR NO CLOUDS BELOW 12,000 FEET WITH NO
SIGNIFICANT WEATHER AND/OR OBSTRUCTION TO VISIBILITY.

MIZ047>049-052>055-059>063-066>070-074>076-081>083-302100-
SOUTHEAST LOWER MICHIGAN

CITY           SKY/WX    TMP DP  RH WIND       PRES   REMARKS
ADRIAN         MOSUNNY   84  67  56 SW8       30.03F
ALMA           CLOUDY    76  68  76 W3        30.05S
ANN ARBOR      MOSUNNY   83  68  60 W8        30.03F
BAD AXE        CLOUDY    76  67  71 SW6       30.04S
DETROIT CITY   PTSUNNY   81  68  64 SW8       30.02F
DETROIT        PTSUNNY   84  67  56 S8        30.02F
FLINT          MOSUNNY   80  67  64 W9        30.04F
GROSSE ILE     MOSUNNY   77  72  83 SE5       30.02F
HILLSDALE      MOSUNNY   81  70  69 SW6       30.05F
HOWELL         CLOUDY    80  68  68 W10       30.04S

CITY           SKY/WX    TMP DP  RH WIND       PRES   REMARKS
JACKSON        PTSUNNY   79  69  71 NW7       30.05F
LAMBERTVILLE   PTSUNNY   84  67  56 SW6       30.03F
LANSING        PTSUNNY   78  67  68 SW8       30.04F
LAPEER         NOT AVBL
MASON          CLOUDY    78  67  68 W6        30.05F
MONROE         CLOUDY    80  69  69 NW9       30.02F
MT. CLEMENS    MOSUNNY   81  70  69 SE9       30.01F
PONTIAC        CLOUDY    80  67  64 S8        30.03F
PORT HOPE        N/A     76  67  73 SW6       30.01F
PORT HURON     PTSUNNY   81  68  65 SW6       30.02F
TRI CITIES     CLOUDY    77  67  71 SW6       30.04F
YPSILANTI      MOSUNNY   86  70  58 SW8       30.03F HX  90
$$
MIZ043>046-050>051-056>058-064>065-071>073-077>080-302100-
SOUTHWEST LOWER MICHIGAN

CITY           SKY/WX    TMP DP  RH WIND       PRES   REMARKS
BATTLE CREEK   PTSUNNY   78  68  71 SW10      30.06F
BENTON HARBOR  CLOUDY    72  66  81 W10       30.06F
BIG RAPIDS     PTSUNNY   75  66  73 S6        30.04F
COLDWATER      CLOUDY    78  69  72 W6        30.04F
HOLLAND        CLOUDY    74  66  76 VRB7      30.06F
GRAND RAPIDS   CLOUDY    77  68  73 W6        30.04F
KALAMAZOO      CLOUDY    77  67  71 SW7       30.05F
MARSHALL       CLOUDY    79  69  72 W9        30.05F
MUSKEGON       PTSUNNY   77  65  66 W7        30.05S
$$
MIZ016>042-302100-
NORTHERN LOWER MICHIGAN

CITY           SKY/WX    TMP DP  RH WIND       PRES   REMARKS
ALPENA         PTSUNNY   78  61  55 SW6       30.01F
BEAVER ISLAND  MOSUNNY   70  62  77 SW12G17   30.01F
BELLAIRE       SUNNY     76  62  60 W3        30.01F
CADILLAC       MOSUNNY   77  63  62 SW7       30.04F
CHARLEVOIX     SUNNY     73  64  75 W10       30.05F
FRANKFORT      CLEAR     71  64  76 SW7       30.04F
GAYLORD        MOSUNNY   77  60  55 SW10      30.03F
GRAYLING       MOSUNNY   78  62  57 SW7       30.04F
HARBOR SPRINGS SUNNY     73  63  72 SW8       30.01F
HOUGHTON LAKE  SUNNY     77  63  61 W6        30.04F
MANISTEE       SUNNY     72  61  68 W8        30.05S
OSCODA         PTSUNNY   74  65  71 SE10      30.01F
PELLSTON       MOSUNNY   76  62  62 SW12      30.01F
TRAVERSE CITY  MOSUNNY   78  62  57 W9        30.01F
$$
MIZ007>008-015-302100-
EASTERN UPPER MICHIGAN

CITY           SKY/WX    TMP DP  RH WIND       PRES   REMARKS
KINROSS        MOSUNNY   75  63  64 SW9       29.99F
MACKINAC ISLAN SUNNY     70  59  69 W10G17    30.00F
NEWBERRY       SUNNY     73  61  64 S20       29.98F
S. S. MARIE    SUNNY     75  61  61 SW12      29.97F
$$
MIZ004>006-011>014-085-302100-
CENTRAL UPPER MICHIGAN

CITY           SKY/WX    TMP DP  RH WIND       PRES   REMARKS
MANISTIQUE     SUNNY     69  62  78 S15       29.99F
ESCANABA       SUNNY     70  61  73 S15G23    29.96F
MENOMINEE      SUNNY     73  63  68 SW13      29.98F
SAWYER-GWINN   SUNNY     81  61  50 SW14G21   29.94F
$$
MIZ001>003-009>011-084-302100-
WESTERN UPPER MICHIGAN

CITY           SKY/WX    TMP DP  RH WIND       PRES   REMARKS
IRON MOUNTAIN  MOSUNNY   79  61  53 S12       29.96F
HOUGHTON       SUNNY     83  59  44 SW12      29.88F
IRONWOOD       MOSUNNY   81  63  54 SW14      29.89F
$$

ABBREVIATIONS USED IN REMARKS
   TC - TEMPERATURE IN CELSIUS
  WCI - WIND CHILL INDEX
   HX - HEAT INDEX
  VSB - VISIBILITY



USA.gov is the U.S. government's official web portal to all federal, state and local government web resources and services.